Starlink 32221

operational
NORAD ID: 60342 Int'l Des: 2024-136 Owner: SPXS Country: US Constellation: starlink
LEOCIRCULAR

Über Starlink 32221

Beschreibung wird geladen...

Live-Position

3D-Globus wird geladen...

Nächste Überflüge

Höhenverlauf

Altitude vs Time

uPlot chart will show altitude changes over time

Zweizeiliger Elementsatz

1 60342U 24136P 25353.99510193 .00000172 00000-0 17937-4 0 9997
2 60342 53.1596 85.7910 0001318 88.1268 271.9884 15.30191521 77463
Epoch: 19. Dez. 2025 • Age: 15 hours

Aktueller Status

Höhe 476.1 km
Geschwindigkeit 7.63 km/s
Subsatellitenpunkt 28.29°N, 69.38°W
Startdatum 2. Aug. 2024
Alter 1.3 years
Typ internet

Technische Details

Klassifizierung Payload
Masse 730.00 kg
Trockenmasse 700.00 kg
Gesamtmasse 730.00 kg
Länge 0.30 m
Durchmesser 4.10 m
Spannweite 29.00 m
Form Box + pan
Hersteller SPXS
Bus-Typ Starlink V2M
Phasenstatus In Orbit
Besitzer/Staat SPXS/US

Große Konstellationen

Loading constellations...